カタログに戻る

COSMOS 1041

運用中軍事LEO
NORAD 11050·PAYLOAD·🇷🇺 Russia

打ち上げ Oct 4, 1978 から Plesetsk Cosmodrome

Loading…

次のパス (今後24時間)

TLE

最新Source: Space-Track

元期: Sep 14, 2026, 10:50 UTC

1 11050U 78091H   26257.45171166  .00000010  00000-0  18302-3 0  9993
2 11050  74.0358 148.1484 0019469 160.1362  12.9254 12.43327265176174

AllMySatでCOSMOS 1041をリアルタイム追跡

Download on the App Store